Location: Praha
(50.0830°N, 14.4670°E)
Time: 00:03:05
(UTC+02:00)

ISS - Pass Details

Date: 17 September 2023
Orbit: 414 x 421 km, 51.6° (Epoch: 25 September)

Event Time Altitude Azimuth Distance (km) Brightness Sun altitude
Rises 20:46:41 0° 245° (WSW) 2,345 0.7 -15.5°
Reaches altitude 10° 20:48:47 10° 243° (WSW) 1,485 -0.4 -15.8°
Maximum altitude 20:52:06 71° 159° (SSE) 442 -3.9 -16.3°
Enters shadow 20:53:05 41° 87° (E) 612 -3.4 -16.5°
